This is the latest recevied weather packets stored in our database for station/object 5B4APJ-13. If no packets are shown the sender has not sent any weather packets the latest 10 day(s).
| Time | Temp. | Humidity | Pressure | Rain* | Wind** | Luminosity | Snow |
|---|---|---|---|---|---|---|---|
| 1777913223 | 13.89° C | 60% | 1010.3 hPa | 0 mm | 1.34 m/s, 276° | 0 W/m² | - |
| 1777912923 | 13.89° C | 59% | 1010.4 hPa | 0 mm | 1.34 m/s, 291° | 1 W/m² | - |
| 1777912623 | 13.89° C | 58% | 1010.2 hPa | 0 mm | 2.24 m/s, 279° | 2 W/m² | - |
| 1777912323 | 13.89° C | 57% | 1010 hPa | 0 mm | 2.68 m/s, 293° | 3 W/m² | - |
| 1777912023 | 13.89° C | 57% | 1010.1 hPa | 0 mm | 2.68 m/s, 303° | 5 W/m² | - |
| 1777911723 | 13.89° C | 56% | 1010.2 hPa | 0 mm | 1.79 m/s, 277° | 7 W/m² | - |
| 1777911423 | 13.89° C | 57% | 1010.1 hPa | 0 mm | 1.34 m/s, 287° | 13 W/m² | - |
| 1777911123 | 14.44° C | 56% | 1010 hPa | 0 mm | 1.34 m/s, 267° | 16 W/m² | - |
| 1777910822 | 14.44° C | 56% | 1010.1 hPa | 0 mm | 0.89 m/s, 280° | 19 W/m² | - |
| 1777910523 | 14.44° C | 56% | 1010.1 hPa | 0 mm | 2.24 m/s, 275° | 23 W/m² | - |
| 1777910223 | 14.44° C | 55% | 1009.8 hPa | 0 mm | 4.02 m/s, 271° | 26 W/m² | - |
| 1777909924 | 14.44° C | 55% | 1009.6 hPa | 0 mm | 2.68 m/s, 270° | 36 W/m² | - |
| 1777909623 | 15° C | 55% | 1009.8 hPa | 0 mm | 2.24 m/s, 277° | 58 W/m² | - |
| 1777909323 | 15° C | 54% | 1009.9 hPa | 0 mm | 1.79 m/s, 276° | 60 W/m² | - |
| 1777909023 | 15° C | 55% | 1009.8 hPa | 0 mm | 2.68 m/s, 307° | 62 W/m² | - |
| 1777908723 | 15.56° C | 55% | 1009.4 hPa | 0 mm | 3.13 m/s, 323° | 67 W/m² | - |
| 1777908423 | 15.56° C | 54% | 1009.5 hPa | 0 mm | 2.68 m/s, 281° | 59 W/m² | - |
| 1777908123 | 15.56° C | 56% | 1009.6 hPa | 0 mm | 1.79 m/s, 289° | 120 W/m² | - |
| 1777907823 | 16.11° C | 54% | 1009.5 hPa | 0 mm | 3.13 m/s, 287° | 85 W/m² | - |
| 1777907524 | 16.11° C | 53% | 1009.5 hPa | 0 mm | 4.02 m/s, 315° | 162 W/m² | - |
| 1777907223 | 16.11° C | 54% | 1009.5 hPa | 0 mm | 0.89 m/s, 306° | 166 W/m² | - |
| 1777906923 | 15.56° C | 57% | 1009.4 hPa | 0 mm | 1.79 m/s, 275° | 145 W/m² | - |
| 1777906623 | 15° C | 58% | 1009.6 hPa | 0 mm | 1.79 m/s, 281° | 62 W/m² | - |
| 1777906323 | 15.56° C | 56% | 1009.4 hPa | 0 mm | 1.79 m/s, 343° | 70 W/m² | - |
| 1777906024 | 15.56° C | 56% | 1009.6 hPa | 0 mm | 2.24 m/s, 278° | 119 W/m² | - |
* Rain latest hour (hover to see other rain measurements)
** Current wind speed in m/s (hover to see current wind gust speed)